Hourly Data Report for August 16, 2002

SHERBROOKE A
QUEBEC

45°26'00.000" N
71°41'00.000" W
241.40 m
7028124
71610
YSC

Download Data

Hourly Data (August 2002)
Hourly Data Report for August 16, 2002
TIME
LST
Temp Definition
°C
Dew Point Definition
°C
Rel Hum Definition
%
Precip. Amount Definition
mm

Wind Dir Definition
10's deg

Wind Spd Definition
km/h
Visibility Definition
km
Stn Press Definition
kPa
Hmdx Definition


Wind Chill Definition


Weather Definition


00:00 18.9 18.5 98     0 2.9 98.83      
01:00 18.5 17.6 94   13 4 4.0 98.80      
02:00 19.1 18.3 95     0 3.1 98.77      
03:00 19.5 18.3 93     0 4.8 98.75      
04:00 19.3 18.3 94     0 2.7 98.75      
05:00 19.4 18.3 93     0 5.6 98.79      
06:00 20.0 19.1 95     0 4.0 98.84 27    
07:00 23.3 19.7 80   14 4 9.7 98.86 31   Haze
08:00 25.4 20.4 74   21 6 12.9 98.84 33   Mainly Clear
09:00 27.2 20.0 65   21 13 24.1 98.79 35   Mainly Clear
10:00 28.3 20.8 64   21 13 24.1 98.75 37   Mainly Clear
11:00 28.4 20.4 62   21 13 24.1 98.70 36   Mainly Clear
12:00 29.2 20.1 58   23 15 24.1 98.60 37   Mainly Clear
13:00 30.7 20.2 54   22 15 24.1 98.53 38   Mainly Clear
14:00 30.7 20.1 53   23 13 24.1 98.48 38   Mainly Clear
15:00 30.1 19.2 52   23 20 24.1 98.41 37   Mostly Cloudy
16:00 29.6 19.8 56   22 19 24.1 98.41 37   Mainly Clear
17:00 28.6 19.6 58   23 13 15.0 98.38 36    
18:00 26.8 19.8 66   23 9 15.0 98.39 34    
19:00 25.3 19.8 72   20 6 15.0 98.41 33    
20:00 24.4 19.7 75   21 4 15.0 98.42 32    
21:00 23.6 19.6 78   23 9 15.0 98.44 31    
22:00 23.7 19.9 79   24 11 15.0 98.46 31    
23:00 23.6 19.6 78   21 9 15.0 98.47 31    

Notes on Data Quality.

Legend

  • E = Estimated
  • M = Missing
  • NA = Not Available*
  • [empty] = Indicates an unobserved value
Date modified: